Regional Weather Roundup
Issued by NWS

Home | Current Version | Previous Version | Graphics & Text | Print | Product List | Glossary On
Versions: 1 2 3 4 5 6 7 8 9 10 11 12 13 14 15 16 17 18 19 20 21 22 23 24 25 26 27 28 29 30 31 32 33 34 35 36 37 38 39 40 41 42 43 44 45 46 47 48 49 50
774
ASUS43 KDMX 242303
RWRIA

WEATHER ROUNDUP FOR IOWA
NATIONAL WEATHER SERVICE DES MOINES IA
600 PM CDT SUN JUL 24 2016

NOTE: "FAIR" INDICATES FEW OR NO CLOUDS BELOW 12,000 FEET WITH NO
SIGNIFICANT WEATHER AND/OR OBSTRUCTIONS TO VISIBILITY.

* - THESE STATIONS ARE NOT NWS STATIONS...THUS NOT UNDER NWS
QUALITY CONTROL.  THEY ALSO DO NOT REPORT WEATHER SUCH
AS PRECIPITATION OR FOG.

IAZ001>003-012>014-020>022-031>034-043>046-250000-
   NORTHWEST IOWA

CITY           SKY/WX    TMP DP  RH WIND       PRES   REMARKS
CARROLL *      CLOUDY    82  68  61 CALM      30.00S HX  85
CHEROKEE *     CLOUDY    78  64  61 N8G17     30.03R HX  80
LE MARS *      CLOUDY    79  63  57 N9        30.04S HX  80
SHELDON *      CLOUDY    75  64  69 NW6       30.03S
SIOUX CITY     CLOUDY    83  63  50 NW14      30.01S HX  84
SPENCER        CLOUDY    76  63  64 NW10      30.03R
STORM LAKE *   CLOUDY    77  68  73 N7        30.02F
$$

IAZ055>058-069>071-079>083-090>094-250000-
   SOUTHWEST IOWA

CITY           SKY/WX    TMP DP  RH WIND       PRES   REMARKS
ATLANTIC *     CLOUDY    79  70  73 CALM      30.02R HX  81
CLARINDA *       N/A     77  72  83 MISG      30.02F
COUNCIL BLFS * CLOUDY    81  73  78 CALM      30.03R HX  85
CRESTON *      CLOUDY    81  68  65 N8        30.04R HX  83
HARLAN  *      PTSUNNY   81  70  69 CALM      30.05S HX  84
LAMONI         MOSUNNY   80  72  76 N12       29.99R HX  84
RED OAK *      PTSUNNY   81  72  74 S3        30.03S HX  84
SHENANDOAH *   CLOUDY    77  70  78 N7        30.00F
$$

IAZ047>049-059>061-072>074-084-250000-
   CENTRAL IOWA

CITY           SKY/WX    TMP DP  RH WIND       PRES   REMARKS
AMES           PTSUNNY   81  68  64 N6G18     29.97F HX  84
ANKENY *         N/A    N/A N/A N/A MISG        N/A
BOONE *        CLOUDY    81  66  61 N10G17    29.97F HX  83
CHARITON *       N/A    N/A N/A N/A MISG        N/A
DES MOINES     CLOUDY    84  65  52 N9        29.98R HX  86
GRINNELL*      CLOUDY    81  67  63 NW10G20   29.98S HX  83
KNOXVILLE *    CLOUDY    82  68  61 N12G21    29.96S HX  85
MARSHALLTOWN   CLOUDY    78  68  71 NW9       29.97S HX  80
NEWTON *       CLOUDY    81  68  65 N12G18    29.97R HX  83
PELLA *        CLOUDY    84  69  60 NW12      29.98R HX  88
PERRY *          N/A     81  70  71 N5        30.00S HX  84
$$

IAZ004>006-015-016-023>025-035-036-250000-
   NORTH CENTRAL IOWA

CITY           SKY/WX    TMP DP  RH WIND       PRES   REMARKS
ALGONA *       CLOUDY    79  64  61 N7        29.99F HX  81
ESTHERVILLE    CLOUDY    75  67  76 W6        30.01R
FORT DODGE *   CLOUDY    81  66  61 N8        30.00S HX  83
MASON CITY     CLOUDY    78  63  59 NW12      29.99F HX  80
FOREST CITY *    N/A     75  63  64 NW13      29.97F
IOWA FALLS *     N/A     79  66  64 NW8       29.99F HX  81
$$

IAZ007>011-017>019-026>030-037>042-050>054-066-250000-
   NORTHEAST IOWA

CITY           SKY/WX    TMP DP  RH WIND       PRES   REMARKS
CEDAR RAPIDS   CLOUDY    84  72  67 NW12      29.93R HX  89
CHARLES CITY * CLOUDY    79  66  65 NW8       29.97F HX  81
CLINTON *      MOSUNNY   88  80  77 W10       29.88S HX 104
DECORAH *      CLOUDY    79  66  65 VRB5      29.94F HX  81
DUBUQUE        SUNNY     86  71  60 NW14      29.92R HX  91
MONTICELLO *   CLOUDY    82  70  65 NW13G22   29.93R HX  86
OELWEIN *      CLOUDY    79  68  69 NW14      29.96F HX  81
WATERLOO       CLOUDY    79  64  60 NW10      29.94F HX  81
$$

IAZ064-065-067-068-078-250000-
   EAST CENTRAL IOWA

CITY           SKY/WX    TMP DP  RH WIND       PRES   REMARKS
DAVENPORT      PTSUNNY   88  80  77 W9        29.89S HX 104
IOWA CITY      PTSUNNY   87  72  60 NW14      29.93R HX  93
MT. PLEASANT * CLOUDY    89  82  80 W7        29.91R HX 108
MUSCATINE *    CLOUDY    90  81  74 NW8       29.89S HX 108
QUAD CITIES    CLOUDY    89  79  72 W8        29.87S HX 104
$$

IAZ062-063-075>077-085>089-095>099-250000-
   SOUTHEAST IOWA

CITY           SKY/WX    TMP DP  RH WIND       PRES   REMARKS
BURLINGTON     CLOUDY    88  81  79 W3        29.89S HX 106
FAIRFIELD *    CLOUDY    84  79  84 NW7       29.92R HX  96
KEOKUK *       MOSUNNY   90  77  66 W8        29.90R HX 102
CENTERVILLE *  PTSUNNY   82  75  78 NW10      29.98R HX  89
OTTUMWA        CLOUDY    83  74  74 N12       29.95R HX  89
WASHINGTON *   PTSUNNY   88  79  74 NW14      29.92R HX 102
$$

ABBREVIATIONS USED IN REMARKS
   TC - TEMPERATURES IN CELSIUS
  WCI - WIND CHILL INDEX
   HX - HEAT INDEX
  VSB - VISIBILITY
$$





USA.gov is the U.S. government's official web portal to all federal, state and local government web resources and services.